Lid_Strength_Index
2 2 2 1 1 2 2 1 2 2 2 2 2 2 2 2 3 3 3 2 3 2 3 3 2 2 2 4 3 1 -1 -1 0 1 2 3 4 5 8 7 5 7 6 5 4 4 4
2 2 2 2 2 2 2 2 2 2 2 2 2 2 2 2 3 3 3 3 3 3 3 2 2 2 3 5 1 0 0 1 1 2 2 2 4 3 5 7 7 6 6 5 4 5 4
2 2 2 2 3 3 3 2 2 2 2 3 3 3 3 3 3 3 3 3 3 3 2 2 2 2 2 3 0 1 -0 1 1 1 3 2 2 5 4 8 5 6 8 7 6 5 6
2 2 2 2 2 3 3 3 3 3 3 3 3 3 3 3 3 4 4 4 3 3 3 2 2 2 4 0 -0 1 -0 1 1 1 4 2 2 4 5 4 6 9 8 12 8 7 5
2 2 2 2 3 3 3 3 4 4 4 4 4 4 4 4 4 4 4 4 3 2 2 2 2 2 4 0 2 1 1 2 2 4 2 2 4 4 5 8 10 10 14 12 11 7 7
2 3 3 3 3 4 4 4 4 4 4 4 5 5 4 4 4 4 4 4 2 4 3 1 2 4 3 5 3 2 2 2 4 3 3 3 4 5 6 8 16 13 13 11 13 8 7
2 3 3 3 4 4 4 4 5 5 5 5 5 5 5 5 5 5 4 2 4 4 4 5 5 4 4 3 2 3 3 3 4 4 6 4 6 7 6 7 7 8 10 11 10 9 9
3 3 3 3 4 4 4 4 5 5 5 5 5 5 5 5 5 5 4 3 4 3 6 4 4 4 3 4 5 4 3 5 5 7 5 6 7 5 5 6 7 8 9 10 8 7 9
3 4 4 4 4 4 5 5 5 5 5 5 5 5 5 5 6 5 3 3 2 3 6 5 5 5 5 4 6 5 4 5 6 7 6 7 6 5 6 6 7 7 8 10 9 7 6
4 4 4 4 4 5 5 5 5 5 5 5 5 5 6 6 5 2 4 2 2 3 8 7 7 6 4 5 6 4 4 5 5 7 6 6 5 6 6 7 6 8 6 6 7 8 11
4 4 5 5 5 5 5 5 5 5 5 5 5 5 6 6 3 3 2 2 2 4 13 7 7 3 4 6 5 5 3 4 6 6 6 7 6 6 7 6 6 7 5 6 7 8 8
5 5 5 5 5 5 5 5 6 6 6 6 6 6 6 3 2 2 1 2 4 9 12 8 7 7 7 6 6 5 5 4 4 6 6 6 4 5 6 5 5 5 6 6 7 8 11
5 5 5 5 6 5 6 6 6 6 6 6 6 7 6 2 2 0 1 3 9 11 6 7 8 7 7 8 7 6 7 7 8 10 9 7 7 5 5 7 6 6 8 11 11 12 12
5 5 6 6 6 6 6 6 6 6 6 7 7 7 4 1 0 0 2 6 11 7 7 5 6 7 8 7 7 7 7 8 7 7 8 9 10 7 6 7 8 7 8 10 13 13 11
6 6 6 6 6 6 6 6 6 6 7 7 7 2 1 -0 0 1 5 9 9 7 6 6 6 8 8 7 7 8 8 8 7 7 9 9 9 5 6 6 7 8 9 7 9 10 11
6 6 6 6 6 7 6 6 6 7 7 7 6 3 2 0 1 3 6 9 7 5 5 6 8 7 8 8 8 8 8 7 7 6 5 7 9 6 6 6 6 7 6 9 9 12 13
7 7 7 7 7 6 6 6 7 7 8 8 5 4 1 1 2 5 8 7 6 4 4 7 7 7 7 7 7 8 8 6 6 6 5 6 8 8 6 8 8 8 9 8 8 9 12
7 6 6 6 6 6 6 6 6 7 8 6 5 6 1 1 6 6 8 6 8 5 4 6 6 7 7 7 7 7 7 7 5 6 7 6 8 10 8 6 6 7 8 8 10 10 9
7 6 6 5 6 6 6 6 6 7 7 6 6 6 3 2 8 7 6 6 5 6 6 6 7 6 6 7 8 7 6 5 5 5 7 6 9 11 9 7 7 8 7 7 7 7 10
6 6 5 5 5 5 5 5 5 6 6 6 6 7 4 3 4 6 6 6 6 4 5 5 6 5 6 7 6 7 7 5 5 5 3 5 8 9 11 9 7 8 8 7 7 9 9
5 5 4 4 4 4 3 3 4 4 4 5 4 6 4 7 6 5 5 6 7 7 5 4 6 6 7 8 7 7 6 6 5 5 6 7 9 8 8 8 7 7 8 8 8 8 9
4 3 3 3 3 3 3 3 3 4 4 4 6 6 4 6 5 5 6 6 7 6 6 7 7 6 6 7 7 8 7 6 6 5 7 7 9 8 9 8 7 8 7 7 7 8 7
3 3 3 3 3 3 3 3 3 4 4 3 3 2 4 6 6 6 7 6 6 5 5 5 5 6 7 7 5 5 5 5 5 6 7 7 8 8 11 9 9 10 8 8 7 6 7
3 3 3 3 3 3 3 2 2 3 3 2 3 3 5 7 6 6 5 5 5 5 6 5 5 6 5 3 4 4 5 5 5 5 5 7 8 8 10 9 13 9 6 6 7 6 6
4 3 3 3 3 3 2 2 2 2 2 2 1 3 5 8 6 6 5 5 5 4 5 5 4 3 3 4 8 9 9 8 8 6 6 6 7 10 12 11 9 8 7 7 7 7 5
4 3 3 3 3 2 2 2 1 2 2 2 2 1 3 6 7 4 6 5 6 6 6 5 3 2 3 6 8 12 13 11 11 9 6 6 7 9 10 13 14 8 6 4 5 10 5
4 4 3 3 2 2 2 2 1 1 2 2 2 1 3 7 4 4 6 6 5 6 6 5 5 5 4 8 10 12 11 8 12 12 11 10 10 12 11 12 10 6 5 5 11 10 5
3 4 3 2 2 2 2 2 1 1 1 1 2 1 3 6 4 3 3 5 5 5 8 6 7 6 6 9 10 10 10 9 9 9 9 11 14 13 11 13 13 5 5 9 7 5 5
3 3 3 2 2 2 2 1 1 1 1 2 4 1 2 5 5 2 2 1 2 2 5 4 6 6 7 9 9 9 10 8 9 12 7 12 10 12 11 11 6 5 6 4 4 4 5